Year,Month,Day,Hour,Minute,Value (Times are PST for temperature in C)
2017,10,04,00,00,8.70
2017,10,04,00,01,8.70
2017,10,04,00,02,8.70
2017,10,04,00,03,8.80
2017,10,04,00,04,8.80
2017,10,04,00,05,8.80
2017,10,04,00,06,8.80
2017,10,04,00,07,8.80
2017,10,04,00,08,8.80
2017,10,04,00,09,8.80
2017,10,04,00,10,8.90
2017,10,04,00,11,8.90
2017,10,04,00,12,8.90
2017,10,04,00,13,8.90
2017,10,04,00,14,8.90
2017,10,04,00,15,8.90
2017,10,04,00,16,8.90
2017,10,04,00,17,8.90
2017,10,04,00,18,8.90
2017,10,04,00,19,8.90
2017,10,04,00,20,8.90
2017,10,04,00,21,8.80
2017,10,04,00,22,8.80
2017,10,04,00,23,8.80
2017,10,04,00,24,8.70
2017,10,04,00,25,8.70
2017,10,04,00,26,8.70
2017,10,04,00,27,8.70
2017,10,04,00,28,8.70
2017,10,04,00,29,8.70
2017,10,04,00,30,8.70
2017,10,04,00,31,8.70
2017,10,04,00,32,8.80
2017,10,04,00,33,8.80
2017,10,04,00,34,8.80
2017,10,04,00,35,8.80
2017,10,04,00,36,8.80
2017,10,04,00,37,8.80
2017,10,04,00,38,8.80
2017,10,04,00,39,8.80
2017,10,04,00,40,8.80
2017,10,04,00,41,8.80
2017,10,04,00,42,8.80
2017,10,04,00,43,8.80
2017,10,04,00,44,8.70
2017,10,04,00,45,8.70
2017,10,04,00,46,8.70
2017,10,04,00,47,8.70
2017,10,04,00,48,8.70
2017,10,04,00,49,8.60
2017,10,04,00,50,8.60
2017,10,04,00,51,8.60
2017,10,04,00,52,8.60
2017,10,04,00,53,8.60
2017,10,04,00,54,8.50
2017,10,04,00,55,8.50
2017,10,04,00,56,8.50
2017,10,04,00,57,8.40
2017,10,04,00,58,8.40
2017,10,04,00,59,8.40
2017,10,04,01,00,8.40
2017,10,04,01,01,8.40
2017,10,04,01,02,8.40
2017,10,04,01,03,8.40
2017,10,04,01,04,8.40
2017,10,04,01,05,8.30
2017,10,04,01,06,8.30
2017,10,04,01,07,8.30
2017,10,04,01,08,8.30
2017,10,04,01,09,8.30
2017,10,04,01,10,8.30
2017,10,04,01,11,8.30
2017,10,04,01,12,8.30
2017,10,04,01,13,8.20
2017,10,04,01,14,8.20
2017,10,04,01,15,8.20
2017,10,04,01,16,8.20
2017,10,04,01,17,8.20
2017,10,04,01,18,8.10
2017,10,04,01,19,8.10
2017,10,04,01,20,8.10
2017,10,04,01,21,8.10
2017,10,04,01,22,8.10
2017,10,04,01,23,8.10
2017,10,04,01,24,8.10
2017,10,04,01,25,8.10
2017,10,04,01,26,8.10
2017,10,04,01,27,8.00
2017,10,04,01,28,8.00
2017,10,04,01,29,7.90
2017,10,04,01,30,7.90
2017,10,04,01,31,7.90
2017,10,04,01,32,7.80
2017,10,04,01,33,7.80
2017,10,04,01,34,7.80
2017,10,04,01,35,7.80
2017,10,04,01,36,7.80
2017,10,04,01,37,7.70
2017,10,04,01,38,7.70
2017,10,04,01,39,7.70
2017,10,04,01,40,7.70
2017,10,04,01,41,7.70
2017,10,04,01,42,7.70
2017,10,04,01,43,7.70
2017,10,04,01,44,7.70
2017,10,04,01,45,7.70
2017,10,04,01,46,7.70
2017,10,04,01,47,7.70
2017,10,04,01,48,7.70
2017,10,04,01,49,7.70
2017,10,04,01,50,7.70
2017,10,04,01,51,7.70
2017,10,04,01,52,7.70
2017,10,04,01,53,7.70
2017,10,04,01,54,7.70
2017,10,04,01,55,7.70
2017,10,04,01,56,7.80
2017,10,04,01,57,7.80
2017,10,04,01,58,7.80
2017,10,04,01,59,7.80
2017,10,04,02,00,7.90
2017,10,04,02,01,7.90
2017,10,04,02,02,7.90
2017,10,04,02,03,8.00
2017,10,04,02,04,8.00
2017,10,04,02,05,8.00
2017,10,04,02,06,8.00
2017,10,04,02,07,8.00
2017,10,04,02,08,8.00
2017,10,04,02,09,8.00
2017,10,04,02,10,8.00
2017,10,04,02,11,8.00
2017,10,04,02,12,8.00
2017,10,04,02,13,8.00
2017,10,04,02,14,8.00
2017,10,04,02,15,8.00
2017,10,04,02,16,8.00
2017,10,04,02,17,7.90
2017,10,04,02,18,7.90
2017,10,04,02,19,7.90
2017,10,04,02,20,7.90
2017,10,04,02,21,7.90
2017,10,04,02,22,7.90
2017,10,04,02,23,7.90
2017,10,04,02,24,7.90
2017,10,04,02,25,7.90
2017,10,04,02,26,7.80
2017,10,04,02,27,7.80
2017,10,04,02,28,7.80
2017,10,04,02,29,7.80
2017,10,04,02,30,7.80
2017,10,04,02,31,7.80
2017,10,04,02,32,7.80
2017,10,04,02,33,7.70
2017,10,04,02,34,7.70
2017,10,04,02,35,7.70
2017,10,04,02,36,7.70
2017,10,04,02,37,7.70
2017,10,04,02,38,7.70
2017,10,04,02,39,7.70
2017,10,04,02,40,7.70
2017,10,04,02,41,7.70
2017,10,04,02,42,7.70
2017,10,04,02,43,7.70
2017,10,04,02,44,7.70
2017,10,04,02,45,7.70
2017,10,04,02,46,7.70
2017,10,04,02,47,7.70
2017,10,04,02,48,7.70
2017,10,04,02,49,7.70
2017,10,04,02,50,7.70
2017,10,04,02,51,7.60
2017,10,04,02,52,7.60
2017,10,04,02,53,7.60
2017,10,04,02,54,7.60
2017,10,04,02,55,7.60
2017,10,04,02,56,7.60
2017,10,04,02,57,7.50
2017,10,04,02,58,7.50
2017,10,04,02,59,7.50
2017,10,04,03,00,7.50
2017,10,04,03,01,7.40
2017,10,04,03,02,7.40
2017,10,04,03,03,7.40
2017,10,04,03,04,7.40
2017,10,04,03,05,7.30
2017,10,04,03,06,7.30
2017,10,04,03,07,7.30
2017,10,04,03,08,7.30
2017,10,04,03,09,7.30
2017,10,04,03,10,7.30
2017,10,04,03,11,7.30
2017,10,04,03,12,7.30
2017,10,04,03,13,7.30
2017,10,04,03,14,7.30
2017,10,04,03,15,7.30
2017,10,04,03,16,7.30
2017,10,04,03,17,7.30
2017,10,04,03,18,7.40
2017,10,04,03,19,7.40
2017,10,04,03,20,7.40
2017,10,04,03,21,7.40
2017,10,04,03,22,7.40
2017,10,04,03,23,7.40
2017,10,04,03,24,7.40
2017,10,04,03,25,7.40
2017,10,04,03,26,7.40
2017,10,04,03,27,7.40
2017,10,04,03,28,7.40
2017,10,04,03,29,7.50
2017,10,04,03,30,7.50
2017,10,04,03,31,7.50
2017,10,04,03,32,7.50
2017,10,04,03,33,7.60
2017,10,04,03,34,7.60
2017,10,04,03,35,7.60
2017,10,04,03,36,7.60
2017,10,04,03,37,7.60
2017,10,04,03,38,7.70
2017,10,04,03,39,7.70
2017,10,04,03,40,7.70
2017,10,04,03,41,7.80
2017,10,04,03,42,7.80
2017,10,04,03,43,7.80
2017,10,04,03,44,7.90
2017,10,04,03,45,7.90
2017,10,04,03,46,8.00
2017,10,04,03,47,8.10
2017,10,04,03,48,8.30
2017,10,04,03,49,8.40
2017,10,04,03,50,8.70
2017,10,04,03,51,8.80
2017,10,04,03,52,9.00
2017,10,04,03,53,9.20
2017,10,04,03,54,9.40
2017,10,04,03,55,9.60
2017,10,04,03,56,9.70
2017,10,04,03,57,9.90
2017,10,04,03,58,10.10
2017,10,04,03,59,10.30
2017,10,04,04,00,10.50
2017,10,04,04,01,10.70
2017,10,04,04,02,10.90
2017,10,04,04,03,11.00
2017,10,04,04,04,11.10
2017,10,04,04,05,11.20
2017,10,04,04,06,11.30
2017,10,04,04,07,11.30
2017,10,04,04,08,11.40
2017,10,04,04,09,11.40
2017,10,04,04,10,11.50
2017,10,04,04,11,11.50
2017,10,04,04,12,11.50
2017,10,04,04,13,11.50
2017,10,04,04,14,11.50
2017,10,04,04,15,11.60
2017,10,04,04,16,11.60
2017,10,04,04,17,11.60
2017,10,04,04,18,11.60
2017,10,04,04,19,11.60
2017,10,04,04,20,11.60
2017,10,04,04,21,11.70
2017,10,04,04,22,11.70
2017,10,04,04,23,11.70
2017,10,04,04,24,11.70
2017,10,04,04,25,11.80
2017,10,04,04,26,11.80
2017,10,04,04,27,11.80
2017,10,04,04,28,11.80
2017,10,04,04,29,11.70
2017,10,04,04,30,11.70
2017,10,04,04,31,11.70
2017,10,04,04,32,11.70
2017,10,04,04,33,11.70
2017,10,04,04,34,11.70
2017,10,04,04,35,11.70
2017,10,04,04,36,11.70
2017,10,04,04,37,11.80
2017,10,04,04,38,11.80
2017,10,04,04,39,11.80
2017,10,04,04,40,11.80
2017,10,04,04,41,11.80
2017,10,04,04,42,11.80
2017,10,04,04,43,11.80
2017,10,04,04,44,11.80
2017,10,04,04,45,11.80
2017,10,04,04,46,11.80
2017,10,04,04,47,11.80
2017,10,04,04,48,11.80
2017,10,04,04,49,11.80
2017,10,04,04,50,11.80
2017,10,04,04,51,11.80
2017,10,04,04,52,11.80
2017,10,04,04,53,11.80
2017,10,04,04,54,11.80
2017,10,04,04,55,11.80
2017,10,04,04,56,11.80
2017,10,04,04,57,11.80
2017,10,04,04,58,11.80
2017,10,04,04,59,11.80
2017,10,04,05,00,11.80
2017,10,04,05,01,11.80
2017,10,04,05,02,11.80
2017,10,04,05,03,11.70
2017,10,04,05,04,11.70
2017,10,04,05,05,11.70
2017,10,04,05,06,11.70
2017,10,04,05,07,11.70
2017,10,04,05,08,11.70
2017,10,04,05,09,11.70
2017,10,04,05,10,11.70
2017,10,04,05,11,11.70
2017,10,04,05,12,11.70
2017,10,04,05,13,11.60
2017,10,04,05,14,11.60
2017,10,04,05,15,11.60
2017,10,04,05,16,11.60
2017,10,04,05,17,11.60
2017,10,04,05,18,11.60
2017,10,04,05,19,11.60
2017,10,04,05,20,11.50
2017,10,04,05,21,11.50
2017,10,04,05,22,11.50
2017,10,04,05,23,11.50
2017,10,04,05,24,11.50
2017,10,04,05,25,11.40
2017,10,04,05,26,11.40
2017,10,04,05,27,11.40
2017,10,04,05,28,11.40
2017,10,04,05,29,11.40
2017,10,04,05,30,11.40
2017,10,04,05,31,11.40
2017,10,04,05,32,11.40
2017,10,04,05,33,11.40
2017,10,04,05,34,11.40
2017,10,04,05,35,11.40
2017,10,04,05,36,11.30
2017,10,04,05,37,11.30
2017,10,04,05,38,11.30
2017,10,04,05,39,11.40
2017,10,04,05,40,11.30
2017,10,04,05,41,11.30
2017,10,04,05,42,11.30
2017,10,04,05,43,11.30
2017,10,04,05,44,11.30
2017,10,04,05,45,11.30
2017,10,04,05,46,11.30
2017,10,04,05,47,11.30
2017,10,04,05,48,11.20
2017,10,04,05,49,11.20
2017,10,04,05,50,11.20
2017,10,04,05,51,11.20
2017,10,04,05,52,11.20
2017,10,04,05,53,11.20
2017,10,04,05,54,11.20
2017,10,04,05,55,11.20
2017,10,04,05,56,11.20
2017,10,04,05,57,11.20
2017,10,04,05,58,11.20
2017,10,04,05,59,11.30
2017,10,04,06,00,11.30
2017,10,04,06,01,11.30
2017,10,04,06,02,11.30
2017,10,04,06,03,11.30
2017,10,04,06,04,11.30
2017,10,04,06,05,11.30
2017,10,04,06,06,11.30
2017,10,04,06,07,11.30
2017,10,04,06,08,11.30
2017,10,04,06,09,11.30
2017,10,04,06,10,11.30
2017,10,04,06,11,11.20
2017,10,04,06,12,11.20
2017,10,04,06,13,11.20
2017,10,04,06,14,11.10
2017,10,04,06,15,11.10
2017,10,04,06,16,11.10
2017,10,04,06,17,11.10
2017,10,04,06,18,11.00
2017,10,04,06,19,11.00
2017,10,04,06,20,10.90
2017,10,04,06,21,10.90
2017,10,04,06,22,10.90
2017,10,04,06,23,10.90
2017,10,04,06,24,10.80
2017,10,04,06,25,10.80
2017,10,04,06,26,10.80
2017,10,04,06,27,10.70
2017,10,04,06,28,10.70
2017,10,04,06,29,10.60
2017,10,04,06,30,10.50
2017,10,04,06,31,10.50
2017,10,04,06,32,10.40
2017,10,04,06,33,10.30
2017,10,04,06,34,10.30
2017,10,04,06,35,10.30
2017,10,04,06,36,10.20
2017,10,04,06,37,10.20
2017,10,04,06,38,10.20
2017,10,04,06,39,10.10
2017,10,04,06,40,10.10
2017,10,04,06,41,10.10
2017,10,04,06,42,10.10
2017,10,04,06,43,10.10
2017,10,04,06,44,10.00
2017,10,04,06,45,10.00
2017,10,04,06,46,10.00
2017,10,04,06,47,10.00
2017,10,04,06,48,10.00
2017,10,04,06,49,9.90
2017,10,04,06,50,9.90
2017,10,04,06,51,9.90
2017,10,04,06,52,9.90
2017,10,04,06,53,9.90
2017,10,04,06,54,9.90
2017,10,04,06,55,9.90
2017,10,04,06,56,9.90
2017,10,04,06,57,9.80
2017,10,04,06,58,9.80
2017,10,04,06,59,9.80
2017,10,04,07,00,9.80
2017,10,04,07,01,9.80
2017,10,04,07,02,9.80
2017,10,04,07,03,9.80
2017,10,04,07,04,9.70
2017,10,04,07,05,9.70
2017,10,04,07,06,9.70
2017,10,04,07,07,9.60
2017,10,04,07,08,9.60
2017,10,04,07,09,9.60
2017,10,04,07,10,9.50
2017,10,04,07,11,9.50
2017,10,04,07,12,9.40
2017,10,04,07,13,9.40
2017,10,04,07,14,9.40
2017,10,04,07,15,9.40
2017,10,04,07,16,9.30
2017,10,04,07,17,9.30
2017,10,04,07,18,9.30
2017,10,04,07,19,9.30
2017,10,04,07,20,9.30
2017,10,04,07,21,9.30
2017,10,04,07,22,9.30
2017,10,04,07,23,9.30
2017,10,04,07,24,9.30
2017,10,04,07,25,9.30
2017,10,04,07,26,9.30
2017,10,04,07,27,9.30
2017,10,04,07,28,9.30
2017,10,04,07,29,9.30
2017,10,04,07,30,9.30
2017,10,04,07,31,9.20
2017,10,04,07,32,9.20
2017,10,04,07,33,9.20
2017,10,04,07,34,9.20
2017,10,04,07,35,9.20
2017,10,04,07,36,9.20
2017,10,04,07,37,9.20
2017,10,04,07,38,9.20
2017,10,04,07,39,9.20
2017,10,04,07,40,9.20
2017,10,04,07,41,9.30
2017,10,04,07,42,9.30
2017,10,04,07,43,9.30
2017,10,04,07,44,9.30
2017,10,04,07,45,9.40
2017,10,04,07,46,9.40
2017,10,04,07,47,9.50
2017,10,04,07,48,9.60
2017,10,04,07,49,9.70
2017,10,04,07,50,9.70
2017,10,04,07,51,9.80
2017,10,04,07,52,9.80
2017,10,04,07,53,9.90
2017,10,04,07,54,9.90
2017,10,04,07,55,10.00
2017,10,04,07,56,10.10
2017,10,04,07,57,10.10
2017,10,04,07,58,10.20
2017,10,04,07,59,10.20
2017,10,04,08,00,10.30
2017,10,04,08,01,10.40
2017,10,04,08,02,10.40
2017,10,04,08,03,10.50
2017,10,04,08,04,10.60
2017,10,04,08,05,10.60
2017,10,04,08,06,10.70
2017,10,04,08,07,10.70
2017,10,04,08,08,10.80
2017,10,04,08,09,10.90
2017,10,04,08,10,10.90
2017,10,04,08,11,11.00
2017,10,04,08,12,11.10
2017,10,04,08,13,11.20
2017,10,04,08,14,11.20
2017,10,04,08,15,11.30
2017,10,04,08,16,11.40
2017,10,04,08,17,11.50
2017,10,04,08,18,11.60
2017,10,04,08,19,11.70
2017,10,04,08,20,11.80
2017,10,04,08,21,11.90
2017,10,04,08,22,12.00
2017,10,04,08,23,12.10
2017,10,04,08,24,12.20
2017,10,04,08,25,12.30
2017,10,04,08,26,12.40
2017,10,04,08,27,12.50
2017,10,04,08,28,12.60
2017,10,04,08,29,12.60
2017,10,04,08,30,12.70
2017,10,04,08,31,12.70
2017,10,04,08,32,12.80
2017,10,04,08,33,12.80
2017,10,04,08,34,12.90
2017,10,04,08,35,12.90
2017,10,04,08,36,13.00
2017,10,04,08,37,13.00
2017,10,04,08,38,13.10
2017,10,04,08,39,13.10
2017,10,04,08,40,13.10
2017,10,04,08,41,13.20
2017,10,04,08,42,13.20
2017,10,04,08,43,13.20
2017,10,04,08,44,13.20
2017,10,04,08,45,13.20
2017,10,04,08,46,13.20
2017,10,04,08,47,13.30
2017,10,04,08,48,13.30
2017,10,04,08,49,13.30
2017,10,04,08,50,13.30
2017,10,04,08,51,13.30
2017,10,04,08,52,13.30
2017,10,04,08,53,13.30
2017,10,04,08,54,13.30
2017,10,04,08,55,13.30
2017,10,04,08,56,13.30
2017,10,04,08,57,13.40
2017,10,04,08,58,13.40
2017,10,04,08,59,13.40
2017,10,04,09,00,13.40
2017,10,04,09,01,13.30
2017,10,04,09,02,13.30
2017,10,04,09,03,13.30
2017,10,04,09,04,13.30
2017,10,04,09,05,13.30
2017,10,04,09,06,13.30
2017,10,04,09,07,13.30
2017,10,04,09,08,13.30
2017,10,04,09,09,13.30
2017,10,04,09,10,13.30
2017,10,04,09,11,13.30
2017,10,04,09,12,13.30
2017,10,04,09,13,13.30
2017,10,04,09,14,13.30
2017,10,04,09,15,13.30
2017,10,04,09,16,13.30
2017,10,04,09,17,13.40
2017,10,04,09,18,13.40
2017,10,04,09,19,13.40
2017,10,04,09,20,13.40
2017,10,04,09,21,13.40
2017,10,04,09,22,13.40
2017,10,04,09,23,13.40
2017,10,04,09,24,13.50
2017,10,04,09,25,13.50
2017,10,04,09,26,13.50
2017,10,04,09,27,13.50
2017,10,04,09,28,13.60
2017,10,04,09,29,13.60
2017,10,04,09,30,13.60
2017,10,04,09,31,13.60
2017,10,04,09,32,13.60
2017,10,04,09,33,13.60
2017,10,04,09,34,13.60
2017,10,04,09,35,13.60
2017,10,04,09,36,13.60
2017,10,04,09,37,13.70
2017,10,04,09,38,13.70
2017,10,04,09,39,13.70
2017,10,04,09,40,13.70
2017,10,04,09,41,13.70
2017,10,04,09,42,13.70
2017,10,04,09,43,13.70
2017,10,04,09,44,13.70
2017,10,04,09,45,13.70
2017,10,04,09,46,13.70
2017,10,04,09,47,13.70
2017,10,04,09,48,13.70
2017,10,04,09,49,13.70
2017,10,04,09,50,13.70
2017,10,04,09,51,13.80
2017,10,04,09,52,13.80
2017,10,04,09,53,13.80
2017,10,04,09,54,13.80
2017,10,04,09,55,13.80
2017,10,04,09,56,13.80
2017,10,04,09,57,13.70
2017,10,04,09,58,13.70
2017,10,04,09,59,13.70
2017,10,04,10,00,13.70
2017,10,04,10,01,13.70
2017,10,04,10,02,13.70
2017,10,04,10,03,13.70
2017,10,04,10,04,13.80
2017,10,04,10,05,13.80
2017,10,04,10,06,13.80
2017,10,04,10,07,13.80
2017,10,04,10,08,13.80
2017,10,04,10,09,13.80
2017,10,04,10,10,13.80
2017,10,04,10,11,13.80
2017,10,04,10,12,13.80
2017,10,04,10,13,13.80
2017,10,04,10,14,13.80
2017,10,04,10,15,13.80
2017,10,04,10,16,13.80
2017,10,04,10,17,13.90
2017,10,04,10,18,13.90
2017,10,04,10,19,13.90
2017,10,04,10,20,13.90
2017,10,04,10,21,13.90
2017,10,04,10,22,13.90
2017,10,04,10,23,13.90
2017,10,04,10,24,13.90
2017,10,04,10,25,14.00
2017,10,04,10,26,14.00
2017,10,04,10,27,14.00
2017,10,04,10,28,14.10
2017,10,04,10,29,14.10
2017,10,04,10,30,14.10
2017,10,04,10,31,14.10
2017,10,04,10,32,14.10
2017,10,04,10,33,14.20
2017,10,04,10,34,14.20
2017,10,04,10,35,14.20
2017,10,04,10,36,14.20
2017,10,04,10,37,14.20
2017,10,04,10,38,14.20
2017,10,04,10,39,14.20
2017,10,04,10,40,14.20
2017,10,04,10,41,14.20
2017,10,04,10,42,14.30
2017,10,04,10,43,14.30
2017,10,04,10,44,14.30
2017,10,04,10,45,14.30
2017,10,04,10,46,14.30
2017,10,04,10,47,14.30
2017,10,04,10,48,14.30
2017,10,04,10,49,14.30
2017,10,04,10,50,14.30
2017,10,04,10,51,14.30
2017,10,04,10,52,14.30
2017,10,04,10,53,14.30
2017,10,04,10,54,14.30
2017,10,04,10,55,14.30
2017,10,04,10,56,14.40
2017,10,04,10,57,14.40
2017,10,04,10,58,14.40
2017,10,04,10,59,14.40
2017,10,04,11,00,14.40
2017,10,04,11,01,14.40
2017,10,04,11,02,14.40
2017,10,04,11,03,14.30
2017,10,04,11,04,14.30
2017,10,04,11,05,14.30
2017,10,04,11,06,14.30
2017,10,04,11,07,14.30
2017,10,04,11,08,14.20
2017,10,04,11,09,14.20
2017,10,04,11,10,14.20
2017,10,04,11,11,14.30
2017,10,04,11,12,14.30
2017,10,04,11,13,14.30
2017,10,04,11,14,14.30
2017,10,04,11,15,14.30
2017,10,04,11,16,14.40
2017,10,04,11,17,14.40
2017,10,04,11,18,14.40
2017,10,04,11,19,14.40
2017,10,04,11,20,14.50
2017,10,04,11,21,14.50
2017,10,04,11,22,14.50
2017,10,04,11,23,14.50
2017,10,04,11,24,14.50
2017,10,04,11,25,14.50
2017,10,04,11,26,14.50
2017,10,04,11,27,14.50
2017,10,04,11,28,14.50
2017,10,04,11,29,14.50
2017,10,04,11,30,14.50
2017,10,04,11,31,14.60
2017,10,04,11,32,14.60
2017,10,04,11,33,14.60
2017,10,04,11,34,14.70
2017,10,04,11,35,14.70
2017,10,04,11,36,14.70
2017,10,04,11,37,14.80
2017,10,04,11,38,14.80
2017,10,04,11,39,14.80
2017,10,04,11,40,14.90
2017,10,04,11,41,14.90
2017,10,04,11,42,14.90
2017,10,04,11,43,14.90
2017,10,04,11,44,14.90
2017,10,04,11,45,15.00
2017,10,04,11,46,15.00
2017,10,04,11,47,15.00
2017,10,04,11,48,15.10
2017,10,04,11,49,15.10
2017,10,04,11,50,15.10
2017,10,04,11,51,15.10
2017,10,04,11,52,15.20
2017,10,04,11,53,15.20
2017,10,04,11,54,15.20
2017,10,04,11,55,15.30
2017,10,04,11,56,15.30
2017,10,04,11,57,15.30
2017,10,04,11,58,15.40
2017,10,04,11,59,15.40
2017,10,04,12,00,15.40
2017,10,04,12,01,15.50
2017,10,04,12,02,15.60
2017,10,04,12,03,15.60
2017,10,04,12,04,15.70
2017,10,04,12,05,15.70
2017,10,04,12,06,15.70
2017,10,04,12,07,15.80
2017,10,04,12,08,15.80
2017,10,04,12,09,15.80
2017,10,04,12,10,15.80
2017,10,04,12,11,15.90
2017,10,04,12,12,15.90
2017,10,04,12,13,15.90
2017,10,04,12,14,15.90
2017,10,04,12,15,15.90
2017,10,04,12,16,15.90
2017,10,04,12,17,15.90
2017,10,04,12,18,15.90
2017,10,04,12,19,16.00
2017,10,04,12,20,16.00
2017,10,04,12,21,15.90
2017,10,04,12,22,16.00
2017,10,04,12,23,16.00
2017,10,04,12,24,15.90
2017,10,04,12,25,15.90
2017,10,04,12,26,15.90
2017,10,04,12,27,15.90
2017,10,04,12,28,15.90
2017,10,04,12,29,15.80
2017,10,04,12,30,15.80
2017,10,04,12,31,15.80
2017,10,04,12,32,15.90
2017,10,04,12,33,15.90
2017,10,04,12,34,15.90
2017,10,04,12,35,15.90
2017,10,04,12,36,15.90
2017,10,04,12,37,15.90
2017,10,04,12,38,15.90
2017,10,04,12,39,16.00
2017,10,04,12,40,16.00
2017,10,04,12,41,16.00
2017,10,04,12,42,16.10
2017,10,04,12,43,16.10
2017,10,04,12,44,16.20
2017,10,04,12,45,16.20
2017,10,04,12,46,16.30
2017,10,04,12,47,16.30
2017,10,04,12,48,16.30
2017,10,04,12,49,16.40
2017,10,04,12,50,16.40
2017,10,04,12,51,16.50
2017,10,04,12,52,16.50
2017,10,04,12,53,16.60
2017,10,04,12,54,16.60
2017,10,04,12,55,16.60
2017,10,04,12,56,16.60
2017,10,04,12,57,16.70
2017,10,04,12,58,16.70
2017,10,04,12,59,16.70
2017,10,04,13,00,16.70
2017,10,04,13,01,16.70
2017,10,04,13,02,16.70
2017,10,04,13,03,16.80
2017,10,04,13,04,16.80
2017,10,04,13,05,16.80
2017,10,04,13,06,16.80
2017,10,04,13,07,16.90
2017,10,04,13,08,16.90
2017,10,04,13,09,16.90
2017,10,04,13,10,17.00
2017,10,04,13,11,17.00
2017,10,04,13,12,17.00
2017,10,04,13,13,17.10
2017,10,04,13,14,17.10
2017,10,04,13,15,17.10
2017,10,04,13,16,17.10
2017,10,04,13,17,17.20
2017,10,04,13,18,17.20
2017,10,04,13,19,17.20
2017,10,04,13,20,17.20
2017,10,04,13,21,17.20
2017,10,04,13,22,17.20
2017,10,04,13,23,17.20
2017,10,04,13,24,17.20
2017,10,04,13,25,17.20
2017,10,04,13,26,17.20
2017,10,04,13,27,17.20
2017,10,04,13,28,17.20
2017,10,04,13,29,17.20
2017,10,04,13,30,17.10
2017,10,04,13,31,17.10
2017,10,04,13,32,17.10
2017,10,04,13,33,17.10
2017,10,04,13,34,17.00
2017,10,04,13,35,17.00
2017,10,04,13,36,17.00
2017,10,04,13,37,16.90
2017,10,04,13,38,16.90
2017,10,04,13,39,16.90
2017,10,04,13,40,16.90
2017,10,04,13,41,17.00
2017,10,04,13,42,17.00
2017,10,04,13,43,17.00
2017,10,04,13,44,17.00
2017,10,04,13,45,17.10
2017,10,04,13,46,17.10
2017,10,04,13,47,17.10
2017,10,04,13,48,17.10
2017,10,04,13,49,17.10
2017,10,04,13,50,17.20
2017,10,04,13,51,17.20
2017,10,04,13,52,17.20
2017,10,04,13,53,17.20
2017,10,04,13,54,17.20
2017,10,04,13,55,17.20
2017,10,04,13,56,17.20
2017,10,04,13,57,17.30
2017,10,04,13,58,17.30
2017,10,04,13,59,17.30
2017,10,04,14,00,17.40
2017,10,04,14,01,17.40
2017,10,04,14,02,17.50
2017,10,04,14,03,17.50
2017,10,04,14,04,17.60
2017,10,04,14,05,17.60
2017,10,04,14,06,17.70
2017,10,04,14,07,17.70
2017,10,04,14,08,17.80
2017,10,04,14,09,17.80
2017,10,04,14,10,17.80
2017,10,04,14,11,17.80
2017,10,04,14,12,17.80
2017,10,04,14,13,17.90
2017,10,04,14,14,17.80
2017,10,04,14,15,17.80
2017,10,04,14,16,17.80
2017,10,04,14,17,17.80
2017,10,04,14,18,17.80
2017,10,04,14,19,17.80
2017,10,04,14,20,17.80
2017,10,04,14,21,17.80
2017,10,04,14,22,17.70
2017,10,04,14,23,17.70
2017,10,04,14,24,17.70
2017,10,04,14,25,17.70
2017,10,04,14,26,17.70
2017,10,04,14,27,17.70
2017,10,04,14,28,17.70
2017,10,04,14,29,17.70
2017,10,04,14,30,17.70
2017,10,04,14,31,17.70
2017,10,04,14,32,17.60
2017,10,04,14,33,17.60
2017,10,04,14,34,17.60
2017,10,04,14,35,17.60
2017,10,04,14,36,17.50
2017,10,04,14,37,17.50
2017,10,04,14,38,17.50
2017,10,04,14,39,17.50
2017,10,04,14,40,17.50
2017,10,04,14,41,17.50
2017,10,04,14,42,17.60
2017,10,04,14,43,17.60
2017,10,04,14,44,17.70
2017,10,04,14,45,17.70
2017,10,04,14,46,17.80
2017,10,04,14,47,17.80
2017,10,04,14,48,17.90
2017,10,04,14,49,17.90
2017,10,04,14,50,18.00
2017,10,04,14,51,18.10
2017,10,04,14,52,18.20
2017,10,04,14,53,18.20
2017,10,04,14,54,18.30
2017,10,04,14,55,18.30
2017,10,04,14,56,18.30
2017,10,04,14,57,18.30
2017,10,04,14,58,18.30
2017,10,04,14,59,18.30
2017,10,04,15,00,18.20
2017,10,04,15,01,18.10
2017,10,04,15,02,18.00
2017,10,04,15,03,17.90
2017,10,04,15,04,17.80
2017,10,04,15,05,17.70
2017,10,04,15,06,17.60
2017,10,04,15,07,17.50
2017,10,04,15,08,17.40
2017,10,04,15,09,17.30
2017,10,04,15,10,17.20
2017,10,04,15,11,17.10
2017,10,04,15,12,17.10
2017,10,04,15,13,17.00
2017,10,04,15,14,16.90
2017,10,04,15,15,16.90
2017,10,04,15,16,16.80
2017,10,04,15,17,16.80
2017,10,04,15,18,16.80
2017,10,04,15,19,16.80
2017,10,04,15,20,16.80
2017,10,04,15,21,16.80
2017,10,04,15,22,16.90
2017,10,04,15,23,16.90
2017,10,04,15,24,16.90
2017,10,04,15,25,16.90
2017,10,04,15,26,16.90
2017,10,04,15,27,17.00
2017,10,04,15,28,17.00
2017,10,04,15,29,17.10
2017,10,04,15,30,17.10
2017,10,04,15,31,17.10
2017,10,04,15,32,17.10
2017,10,04,15,33,17.10
2017,10,04,15,34,16.90
2017,10,04,15,35,16.80
2017,10,04,15,36,16.60
2017,10,04,15,37,16.40
2017,10,04,15,38,16.20
2017,10,04,15,39,16.00
2017,10,04,15,40,15.90
2017,10,04,15,41,15.80
2017,10,04,15,42,15.80
2017,10,04,15,43,15.80
2017,10,04,15,44,15.70
2017,10,04,15,45,15.80
2017,10,04,15,46,15.80
2017,10,04,15,47,15.80
2017,10,04,15,48,15.80
2017,10,04,15,49,15.80
2017,10,04,15,50,15.90
2017,10,04,15,51,15.90
2017,10,04,15,52,16.00
2017,10,04,15,53,16.00
2017,10,04,15,54,16.00
2017,10,04,15,55,16.00
2017,10,04,15,56,16.00
2017,10,04,15,57,16.00
2017,10,04,15,58,16.00
2017,10,04,15,59,15.90
2017,10,04,16,00,15.90
2017,10,04,16,01,15.90
2017,10,04,16,02,15.80
2017,10,04,16,03,15.80
2017,10,04,16,04,15.70
2017,10,04,16,05,15.60
2017,10,04,16,06,15.50
2017,10,04,16,07,15.40
2017,10,04,16,08,15.40
2017,10,04,16,09,15.30
2017,10,04,16,10,15.20
2017,10,04,16,11,15.20
2017,10,04,16,12,15.20
2017,10,04,16,13,15.10
2017,10,04,16,14,15.10
2017,10,04,16,15,15.10
2017,10,04,16,16,15.00
2017,10,04,16,17,15.00
2017,10,04,16,18,15.00
2017,10,04,16,19,15.00
2017,10,04,16,20,15.00
2017,10,04,16,21,15.10
2017,10,04,16,22,15.10
2017,10,04,16,23,15.10
2017,10,04,16,24,15.10
2017,10,04,16,25,15.20
2017,10,04,16,26,15.20
2017,10,04,16,27,15.20
2017,10,04,16,28,15.20
2017,10,04,16,29,15.20
2017,10,04,16,30,15.30
2017,10,04,16,31,15.30
2017,10,04,16,32,15.30
2017,10,04,16,33,15.40
2017,10,04,16,34,15.40
2017,10,04,16,35,15.50
2017,10,04,16,36,15.50
2017,10,04,16,37,15.60
2017,10,04,16,38,15.60
2017,10,04,16,39,15.70
2017,10,04,16,40,15.70
2017,10,04,16,41,15.70
2017,10,04,16,42,15.70
2017,10,04,16,43,15.70
2017,10,04,16,44,15.60
2017,10,04,16,45,15.50
2017,10,04,16,46,15.40
2017,10,04,16,47,15.30
2017,10,04,16,48,15.30
2017,10,04,16,49,15.30
2017,10,04,16,50,15.30
2017,10,04,16,51,15.30
2017,10,04,16,52,15.30
2017,10,04,16,53,15.30
2017,10,04,16,54,15.30
2017,10,04,16,55,15.30
2017,10,04,16,56,15.30
2017,10,04,16,57,15.20
2017,10,04,16,58,15.20
2017,10,04,16,59,15.10
2017,10,04,17,00,15.00
2017,10,04,17,01,14.90
2017,10,04,17,02,14.80
2017,10,04,17,03,14.70
2017,10,04,17,04,14.60
2017,10,04,17,05,14.40
2017,10,04,17,06,14.30
2017,10,04,17,07,14.10
2017,10,04,17,08,14.00
2017,10,04,17,09,14.00
2017,10,04,17,10,14.00
2017,10,04,17,11,14.00
2017,10,04,17,12,14.00
2017,10,04,17,13,14.00
2017,10,04,17,14,13.90
2017,10,04,17,15,13.90
2017,10,04,17,16,13.90
2017,10,04,17,17,13.90
2017,10,04,17,18,13.90
2017,10,04,17,19,13.80
2017,10,04,17,20,13.80
2017,10,04,17,21,13.70
2017,10,04,17,22,13.70
2017,10,04,17,23,13.70
2017,10,04,17,24,13.60
2017,10,04,17,25,13.50
2017,10,04,17,26,13.40
2017,10,04,17,27,13.30
2017,10,04,17,28,13.30
2017,10,04,17,29,13.20
2017,10,04,17,30,13.10
2017,10,04,17,31,13.10
2017,10,04,17,32,13.10